Aeroporto :
LOGIN :

Iscrizione | Disclaimer

   EN    FR    IT 

 










Sommario :    VFR   VFR Marginale   IFR   IFR Intensivo   IFR Molto Intensivo
Visibilità : 
Base nubi : 
>= 8 km
>= 3000ft
5 / 8 km
1000 / 3000 ft
1500m / 5 km
500 / 1000 ft
800 / 1500m
200 / 500 ft
< 800m
< 200 ft
Simboli :   Temporali  Nebbia  Neve Forte  Precipitazioni Forti  Vento > 20 kt
SIGMETs :   Varie  Temporali  Ghiacco  Turbolenza  Onda orograficha  Ceneri Vulcaniche







- Altitudine del aeroporto : 681 ft
- Codice IATA : LBA
- Carte del aeroporto


EGNM - Leeds Bradford

ULTIMO METAR :
  • 181150Z 13011KT CAVOK 00/M02 Q1013

METARs OBSOLETI :
  • 181120Z 14008KT CAVOK M00/M03 Q1013
  • 181050Z 14006KT CAVOK M01/M03 Q1013
  • 181020Z 15006KT CAVOK M01/M03 Q1014
  • 180950Z 14006KT CAVOK M01/M03 Q1014
  • 180920Z 14006KT CAVOK M02/M04 Q1014
  • 180850Z 15006KT CAVOK M02/M04 Q1014

TAF TAF EGNM
Valido dal 18 a 12 ore il 19 a 12 ore UTC


181053Z 1812/1912 14009KT 9999 FEW030
BECMG 1814/1817 BKN010
TEMPO 1814/1824 4000 -RASN BKN005
PROB40
TEMPO 1816/1824 1200 SN BKN003
BECMG 1821/1824 0200 FG VV///
PROB30
TEMPO 1900/1912 1500 -RASN BR BKN003
ATIS : +44 113 250 9696 (x2489)
Nessun NOTAM noto per questo aeroporto.



MetMap, La meteo Aeronautica in un colpo d'occhio ! - Copyright ORBIFLY Dicembre 2007 - Disclaimer

ORBIFLY MET'MAP TEAM :

Programmazione e sviluppo : Alexandra Zaïnal
Concezione e sviluppo : Baudouin d'Aumeries
Co-Programmazione e sviluppo : Marc-Olivier Méhu
Supporto tecnico e logistico : Manuel Goepfert
Aiuto per la traduzione : Arnaldo La Scala

Contatto : metmap@orbifly.com




FONTI E CREDITI :

   NOAA